White Mountain, AK

2:18 AM AKST on February 23, 2017 (GMT -0900)
White Mountain

Weather History for PAWM - October, 2012

Change the Weather History Date:

Sunday, October 28, 2012

  Actual Average (PAOM) Record (PAOM)
Temperature  
Mean Temperature 28 °F -  
Max Temperature 36 °F 27 °F 45 °F (1911)
Min Temperature 21 °F 14 °F -10 °F (1966)
Degree Days  
Heating Degree Days 37    
Moisture  
Dew Point 24 °F    
Average Humidity 91    
Maximum Humidity 100    
Minimum Humidity 78    
Precipitation  
Precipitation 0.00 in - - ()
Sea Level Pressure  
Sea Level Pressure 30.26 in    
Wind  
Wind Speed 7 mph ()    
Max Wind Speed 13 mph    
Max Gust Speed -    
Visibility 9.6 miles    
Events      
Averages and records for this station are not official NWS values.
T = Trace of Precipitation, MM = Missing Value Source: Averaged Metar Reports

Daily Weather History Graph

Daily Weather History Graph

Search for Another Location

Airport or City:

Trip Planner

Search our weather history database for the weather conditions in past years. The results will help you decide how hot, cold, wet, or windy it might be!

Date:

Astronomy

Oct. 28, 2012 Rise Set
Actual Time 10:29 AM AKDT 6:43 PM AKDT
Civil Twilight 9:36 AM AKDT 7:37 PM AKDT
Nautical Twilight 8:38 AM AKDT 8:34 PM AKDT
Astronomical Twilight 7:41 AM AKDT 9:31 PM AKDT
Moon 6:06 PM AKDT (10/28) 9:30 AM AKDT (10/28)
Length of Visible Light 10h 01m
Length of Day
8h 14m
Waxing Gibbous, 99% of the Moon is Illuminated
Oct 28
Waxing Gibbous
Oct 29
Full
Nov 6
Last Quarter
Nov 13
New
Nov 20
First Quarter

Hourly Weather History & Observations

Time (AKDT) Temp. Windchill Dew Point Humidity Pressure Visibility Wind Dir Wind Speed Gust Speed Precip Events Conditions
12:58 AM 24.1 °F 14.4 °F 21.9 °F 91% 30.28 in 10.0 mi North 9.2 mph - N/A   Clear
1:58 AM 24.1 °F 13.7 °F 21.9 °F 91% 30.27 in 10.0 mi North 10.4 mph - N/A   Clear
2:58 AM 24.1 °F 13.7 °F 21.9 °F 91% 30.28 in 10.0 mi North 10.4 mph - N/A   Clear
3:58 AM 23.0 °F 13.1 °F 21.9 °F 96% 30.28 in 10.0 mi North 9.2 mph - N/A   Clear
4:58 AM 23.0 °F 11.1 °F 23.0 °F 100% 30.28 in 10.0 mi North 12.7 mph - N/A   Clear
5:58 AM 23.0 °F 15.8 °F 21.9 °F 96% 30.29 in 10.0 mi NNW 5.8 mph - N/A   Clear
6:58 AM 24.1 °F 14.4 °F 23.0 °F 96% 30.28 in 10.0 mi North 9.2 mph - N/A   Clear
7:58 AM 21.9 °F 12.5 °F 21.9 °F 100% 30.28 in 10.0 mi North 8.1 mph - N/A   Clear
8:58 AM 21.9 °F 14.5 °F 21.0 °F 96% 30.28 in 10.0 mi NNW 5.8 mph - N/A   Clear
9:58 AM 21.9 °F 11.7 °F 21.0 °F 96% 30.28 in 10.0 mi North 9.2 mph - N/A   Clear
10:58 AM 23.0 °F 13.1 °F 21.9 °F 96% 30.28 in 9.0 mi North 9.2 mph - N/A   Clear
11:58 AM 25.0 °F 16.3 °F 24.1 °F 96% 30.27 in 9.0 mi North 8.1 mph - N/A   Clear
12:58 PM 28.0 °F 20.0 °F 25.0 °F 88% 30.28 in 9.0 mi North 8.1 mph - N/A   Clear
1:58 PM 30.9 °F 25.2 °F 27.0 °F 85% 30.27 in 8.0 mi WNW 5.8 mph - N/A   Clear
2:58 PM 35.1 °F 31.0 °F 28.9 °F 78% 30.27 in 9.0 mi North 4.6 mph - N/A   Clear
3:58 PM 34.0 °F - 28.0 °F 79% 30.27 in 9.0 mi Calm Calm - N/A   Clear
4:58 PM 34.0 °F 31.0 °F 28.0 °F 79% 30.25 in 9.0 mi NNW 3.5 mph - N/A   Clear
5:58 PM 33.1 °F 30.0 °F 28.0 °F 82% 30.23 in 9.0 mi NW 3.5 mph - N/A   Clear
6:58 PM 30.0 °F 25.2 °F 27.0 °F 88% 30.23 in 9.0 mi North 4.6 mph - N/A   Clear
7:58 PM 28.0 °F 20.0 °F 26.1 °F 92% 30.22 in 10.0 mi NNW 8.1 mph - N/A   Overcast
8:58 PM 28.0 °F - 25.0 °F 88% 30.22 in 10.0 mi Calm Calm - N/A   Mostly Cloudy
9:58 PM 28.9 °F 25.2 °F 26.1 °F 89% 30.20 in 10.0 mi ENE 3.5 mph - N/A   Overcast
10:58 PM 28.0 °F 21.7 °F 26.1 °F 92% 30.21 in 10.0 mi NNW 5.8 mph - N/A   Overcast
11:58 PM 28.9 °F 22.8 °F 26.1 °F 89% 30.20 in 10.0 mi North 5.8 mph - N/A   Overcast